Regional Weather Roundup
Issued by NWS

Home | Current Version | Previous Version | Graphics & Text | Print | Product List | Glossary On
Versions: 1 2 3 4 5 6 7 8 9 10 11 12 13 14 15 16 17 18 19 20 21 22 23 24 25 26 27 28 29 30 31 32 33 34 35 36 37 38 39 40 41 42 43 44 45 46 47 48 49 50
000
ASUS43 KBIS 100910
RWRND

NORTH DAKOTA REGIONAL WEATHER ROUNDUP
NATIONAL WEATHER SERVICE BISMARCK ND
300 AM CST WED FEB 10 2016

NOTE: "FAIR" INDICATES FEW OR NO CLOUDS BELOW 12,000 FEET WITH NO
SIGNIFICANT WEATHER AND/OR OBSTRUCTIONS TO VISIBILITY.


NDZ001>003-009>011-017-101000-
NORTHWEST NORTH DAKOTA

CITY           SKY/WX    TMP DP  RH WIND       PRES   REMARKS
WILLISTON      CLOUDY    26  22  84 S3        29.84F
MINOT          CLOUDY    20  12  71 E14       29.90F WCI   7
MINOT AFB      CLOUDY    17  15  91 SE14      29.89F WCI   3
$$

NDZ018>021-031>035-040>046-101000-
SOUTHWEST NORTH DAKOTA

CITY           SKY/WX    TMP DP  RH WIND       PRES   REMARKS
BISMARCK       CLOUDY    28  21  75 E10       29.93F WCI  19
DICKINSON      CLOUDY    26  22  84 W8        29.83F WCI  18
GARRISON         N/A     23  20  88 SE12      29.87F WCI  12
HETTINGER ARPT CLOUDY    25  21  85 NW6       29.88F WCI  18
$$

NDZ004>008-012>016-024-026-027-054-101000-
NORTHEAST NORTH DAKOTA

CITY           SKY/WX    TMP DP  RH WIND       PRES   REMARKS
GRAND FORKS    CLOUDY     4  -4  69 E7        30.15F WCI  -8
GRND FRKS AFB  CLOUDY     3  -4  72 E6        30.14F WCI  -8
DEVILS LAKE    LGT SNOW   5   1  83 E13       30.05F FOG     WCI -12
$$

NDZ022-023-025-028>030-036>039-047>053-101000-
SOUTHEAST NORTH DAKOTA

CITY           SKY/WX    TMP DP  RH WIND       PRES   REMARKS
FARGO          CLOUDY     5  -1  76 E3        30.15F
JAMESTOWN      LGT SNOW  10   5  80 SE13      30.03F WCI  -5
$$




USA.gov is the U.S. government's official web portal to all federal, state and local government web resources and services.